Погода в Партизанском

Россия / Оренбургская область     53°00′00″N   52°08′05″E
темп.,
°C
ветер,
м/с
пор.,
м/с
влажн.,
%
обл.,
%
осадки,
мм/ч
давл.,
гПа
погр.,
м
6 марта, сб
сб623:00−9зсз239546 0.1 101121
02:00−12з12960 0.0 101221
05:00−13зюз12937 0.0 101421
08:00−13юз129034 0.0 101420
11:00−7зюз259452 0.0 1015301
14:00−4з358989 0.0 1016481
17:00−5сз248995 0.0 1015432
20:00−9ссз1195100 0.0 101521
7 марта, вс
вс723:00−10ссв2292100 0.0 101425
02:00−11св2391100 0.0 101250
05:00−12св2390100 0.0 101270
08:00−15ссв228786 0.0 101220
11:00−10сз127843 0.0 1013229
14:00−7з35810 0.0 1013533
17:00−7зюз468619 0.0 1012573
20:00−13ююз239567 0.0 101283
8 марта, пн
пн823:00−11ююз4119481 0.0 1012421
02:00−9ююз61593100 0.2 1008665
05:00−7ююз81689100 1.1 1005926
08:00−5ююз71592100 0.7 10021065
11:00−3юз71494100 1.9 1002929
14:00−1юз71385100 0.6 10031199
17:00−1зюз61092100 1.7 1004939
20:00−2юз41093100 2.1 10041000
9 марта, вт
вт923:00−3юз51189100 2.3 1004836
02:00−5з51088100 0.9 1005707
05:00−11з4109496 0.9 1008341
08:00−14зюз399699 0.0 1010251
11:00−11з369499 0.1 1012328
14:00−8з368897 0.0 1014565
17:00−8з348797 0.1 1014605
20:00−13зюз2297100 0.1 101423
10 марта, ср
ср1023:00−15зсз119899 0.1 101620
02:00−18с119563 0.0 101520
05:00−18ссв229574 0.0 101624
08:00−20с2397100 0.0 101543
11:00−16с3592100 0.0 1016263
14:00−14ссз4689100 0.0 1017461
17:00−14ссз4789100 0.0 1017531
20:00−19сз41094100 0.0 1018383